| time (UTC) | temp F | wind direction | speed knots | gust knots | rain 1hr in | rain 24hr in | rain mn in | humidity % | barometer mb |
| 20260509123537 | 69 | 0.0 | 0.0 | 0.00 | 0.00 | 0.00 | 92 | 1011.1 | |
| 20260509122517 | 69 | 0.0 | 0.0 | 0.00 | 0.00 | 0.00 | 92 | 1011.1 | |
| 20260509121517 | 69 | 0.0 | 0.0 | 0.00 | 0.00 | 0.00 | 92 | 1011.1 | |
| 20260509120517 | 69 | 0.0 | 0.0 | 0.00 | 0.00 | 0.00 | 91 | 1011.0 | |
| 20260509115517 | 69 | 0.0 | 0.9 | 0.00 | 0.00 | 0.00 | 91 | 1010.9 | |
| 20260509114517 | 69 | 0.0 | 0.9 | 0.00 | 0.00 | 0.00 | 91 | 1010.9 | |
| 20260509113517 | 69 | 0.0 | 0.0 | 0.00 | 0.00 | 0.00 | 91 | 1010.7 | |
| 20260509112517 | 70 | 0.0 | 0.0 | 0.00 | 0.00 | 0.00 | 91 | 1010.5 | |
| 20260509111517 | 70 | 0.0 | 0.0 | 0.00 | 0.00 | 0.00 | 91 | 1010.4 | |
| 20260509110618 | 70 | 0.0 | 0.0 | 0.00 | 0.00 | 0.00 | 91 | 1010.6 | |
| 20260509105517 | 70 | 0.0 | 0.9 | 0.00 | 0.00 | 0.00 | 90 | 1010.5 | |
| 20260509104517 | 70 | 0.0 | 0.0 | 0.00 | 0.00 | 0.00 | 90 | 1010.4 | |
| 20260509103517 | 70 | 0.0 | 0.0 | 0.00 | 0.00 | 0.00 | 90 | 1010.4 | |
| 20260509102517 | 70 | 0 | 1.7 | 2.6 | 0.00 | 0.00 | 0.00 | 90 | 1010.3 |
| 20260509101537 | 70 | 0 | 1.7 | 2.6 | 0.00 | 0.00 | 0.00 | 90 | 1010.1 |
| 20260509100517 | 70 | 0 | 0.9 | 0.9 | 0.00 | 0.00 | 0.00 | 91 | 1010.0 |
| 20260509095517 | 70 | 0.0 | 0.9 | 0.00 | 0.00 | 0.00 | 91 | 1009.7 | |
| 20260509094517 | 70 | 135 | 0.9 | 1.7 | 0.00 | 0.00 | 0.00 | 90 | 1009.3 |
| 20260509093517 | 69 | 135 | 0.9 | 3.5 | 0.00 | 0.00 | 0.00 | 90 | 1008.6 |
| 20260509092517 | 69 | 90 | 1.7 | 5.2 | 0.00 | 0.00 | 0.00 | 90 | 1008.6 |
| 20260509091537 | 69 | 113 | 1.7 | 3.5 | 0.00 | 0.00 | 0.00 | 90 | 1008.3 |
| 20260509090517 | 69 | 158 | 1.7 | 2.6 | 0.00 | 0.00 | 0.00 | 90 | 1008.5 |
| 20260509085517 | 69 | 180 | 2.6 | 7.0 | 0.00 | 0.00 | 0.00 | 90 | 1008.8 |
| 20260509084517 | 69 | 135 | 1.7 | 1.7 | 0.00 | 0.00 | 0.00 | 90 | 1009.3 |
| 20260509083517 | 69 | 0.0 | 0.0 | 0.00 | 0.00 | 0.00 | 90 | 1009.9 | |
| 20260509082517 | 69 | 135 | 1.7 | 3.5 | 0.00 | 0.00 | 0.00 | 89 | 1010.3 |
| 20260509081517 | 69 | 0.0 | 0.0 | 0.00 | 0.00 | 0.00 | 89 | 1010.9 | |
| 20260509080517 | 69 | 135 | 0.9 | 0.9 | 0.00 | 0.00 | 0.00 | 89 | 1011.2 |
| 20260509075517 | 69 | 0.0 | 0.0 | 0.00 | 0.00 | 0.00 | 89 | 1011.4 | |
| 20260509074517 | 69 | 0.0 | 0.0 | 0.00 | 0.00 | 0.00 | 89 | 1011.6 | |
| 20260509073517 | 69 | 0.0 | 0.0 | 0.00 | 0.00 | 0.00 | 89 | 1011.9 | |
| 20260509072517 | 69 | 0.0 | 0.0 | 0.00 | 0.00 | 0.00 | 89 | 1012.1 | |
| 20260509071517 | 68 | 0.0 | 0.9 | 0.00 | 0.00 | 0.00 | 89 | 1011.9 | |
| 20260509070517 | 68 | 0.0 | 1.7 | 0.00 | 0.00 | 0.00 | 89 | 1011.6 | |
| 20260509065517 | 68 | 0.0 | 0.0 | 0.00 | 0.00 | 0.00 | 89 | 1010.9 | |
| 20260509064517 | 68 | 0.0 | 0.0 | 0.00 | 0.00 | 0.00 | 88 | 1011.2 | |
| 20260509063517 | 68 | 0.0 | 0.9 | 0.00 | 0.00 | 0.00 | 88 | 1011.1 | |
| 20260509062537 | 68 | 0.0 | 0.9 | 0.00 | 0.00 | 0.00 | 88 | 1011.1 | |
| 20260509061517 | 69 | 0.0 | 0.0 | 0.00 | 0.00 | 0.00 | 87 | 1011.8 | |
| 20260509060517 | 70 | 0.0 | 0.0 | 0.00 | 0.00 | 0.00 | 87 | 1011.8 | |
| 20260509055517 | 70 | 0 | 0.9 | 0.9 | 0.00 | 0.00 | 0.00 | 86 | 1011.7 |
| 20260509054517 | 70 | 0.0 | 0.9 | 0.00 | 0.00 | 0.00 | 86 | 1012.0 | |
| 20260509053537 | 71 | 0.0 | 0.9 | 0.00 | 0.00 | 0.00 | 86 | 1012.5 | |
| 20260509052517 | 70 | 0 | 0.9 | 0.9 | 0.00 | 0.00 | 0.00 | 86 | 1012.5 |
| 20260509051517 | 70 | 0 | 0.9 | 1.7 | 0.00 | 0.00 | 0.00 | 86 | 1011.5 |
| 20260509050536 | 70 | 0.0 | 0.9 | 0.00 | 0.00 | 0.00 | 86 | 1011.5 | |
| 20260509045517 | 70 | 0.0 | 0.9 | 0.00 | 0.00 | 0.00 | 86 | 1011.0 | |
| 20260509044517 | 70 | 0.0 | 0.0 | 0.00 | 0.00 | 0.00 | 86 | 1010.7 | |
| 20260509043517 | 70 | 0.0 | 0.0 | 0.00 | 0.00 | 0.00 | 85 | 1010.7 | |
| 20260509042517 | 71 | 0.0 | 0.0 | 0.00 | 0.00 | 0.00 | 85 | 1011.5 | |
| 20260509041517 | 71 | 0.0 | 0.0 | 0.00 | 0.00 | 0.00 | 83 | 1011.9 | |
| 20260509040517 | 71 | 0.0 | 0.0 | 0.00 | 0.00 | 0.00 | 83 | 1012.0 | |
| 20260509035517 | 71 | 0.0 | 0.0 | 0.00 | 0.00 | 0.00 | 83 | 1012.0 | |
| 20260509034517 | 71 | 0.0 | 0.0 | 0.00 | 0.00 | 0.00 | 84 | 1011.7 | |
| 20260509033517 | 71 | 0.0 | 0.0 | 0.00 | 0.00 | 0.00 | 83 | 1011.3 | |
| 20260509032557 | 71 | 0.0 | 0.0 | 0.00 | 0.00 | 0.00 | 82 | 1011.3 | |
| 20260509031517 | 71 | 0.0 | 0.0 | 0.00 | 0.00 | 0.00 | 82 | 1011.2 | |
| 20260509030517 | 71 | 0.0 | 0.0 | 0.00 | 0.00 | 0.00 | 82 | 1011.1 | |
| 20260509025517 | 71 | 0.0 | 0.0 | 0.00 | 0.00 | 0.00 | 83 | 1010.9 | |
| 20260509024517 | 71 | 0.0 | 0.0 | 0.00 | 0.00 | 0.00 | 82 | 1010.8 | |
| 20260509023537 | 72 | 0.0 | 0.0 | 0.00 | 0.00 | 0.00 | 81 | 1010.4 | |
| 20260509022517 | 72 | 0.0 | 0.0 | 0.00 | 0.00 | 0.00 | 81 | 1010.3 | |
| 20260509021517 | 71 | 135 | 0.9 | 1.7 | 0.00 | 0.00 | 0.00 | 82 | 1010.2 |
| 20260509020517 | 71 | 0.0 | 0.9 | 0.00 | 0.00 | 0.00 | 83 | 1010.4 | |
| 20260509015517 | 71 | 0.0 | 0.0 | 0.00 | 0.00 | 0.00 | 83 | 1010.3 | |
| 20260509014537 | 71 | 0.0 | 0.0 | 0.00 | 0.00 | 0.00 | 83 | 1010.2 | |
| 20260509013537 | 71 | 0.0 | 0.0 | 0.00 | 0.00 | 0.00 | 82 | 1010.0 | |
| 20260509012537 | 71 | 0.0 | 0.0 | 0.00 | 0.00 | 0.00 | 82 | 1010.0 | |
| 20260509011517 | 72 | 0.0 | 0.0 | 0.00 | 0.00 | 0.00 | 80 | 1009.7 | |
| 20260509010536 | 72 | 0.0 | 0.0 | 0.00 | 0.00 | 0.00 | 80 | 1009.6 | |
| 20260509005517 | 72 | 0.0 | 0.0 | 0.00 | 0.00 | 0.00 | 79 | 1009.4 | |
| 20260509004517 | 72 | 0.0 | 0.9 | 0.00 | 0.00 | 0.00 | 78 | 1009.2 | |
| 20260509003517 | 73 | 135 | 0.9 | 0.9 | 0.00 | 0.00 | 0.00 | 78 | 1009.3 |
| 20260509002517 | 73 | 0.0 | 0.9 | 0.00 | 0.00 | 0.00 | 77 | 1009.2 | |
| 20260509001517 | 73 | 0.0 | 0.9 | 0.00 | 0.00 | 0.00 | 76 | 1009.4 | |
| 20260509000517 | 74 | 113 | 0.9 | 3.5 | 0.00 | 0.00 | 0.00 | 75 | 1009.5 |
| 20260508235517 | 74 | 135 | 0.9 | 1.7 | 0.00 | 0.00 | 0.00 | 75 | 1009.6 |
| 20260508234517 | 74 | 135 | 1.7 | 3.5 | 0.00 | 0.00 | 0.00 | 74 | 1009.8 |
| 20260508233537 | 74 | 135 | 0.9 | 1.7 | 0.00 | 0.00 | 0.00 | 73 | 1009.8 |
| 20260508232517 | 74 | 0.0 | 0.9 | 0.00 | 0.00 | 0.00 | 72 | 1009.9 | |
| 20260508231537 | 74 | 135 | 0.9 | 1.7 | 0.00 | 0.00 | 0.00 | 72 | 1009.9 |
| 20260508230517 | 74 | 135 | 0.9 | 1.7 | 0.00 | 0.00 | 0.00 | 73 | 1010.0 |
| 20260508225517 | 74 | 135 | 0.9 | 1.7 | 0.00 | 0.00 | 0.00 | 73 | 1010.0 |
| 20260508224517 | 74 | 113 | 0.9 | 1.7 | 0.00 | 0.00 | 0.00 | 72 | 1010.0 |
| 20260508223517 | 74 | 225 | 0.9 | 2.6 | 0.00 | 0.00 | 0.00 | 73 | 1010.0 |
| 20260508222517 | 74 | 225 | 1.7 | 3.5 | 0.00 | 0.00 | 0.00 | 74 | 1010.0 |
| 20260508221517 | 75 | 68 | 1.7 | 3.5 | 0.00 | 0.00 | 0.00 | 73 | 1009.9 |
| 20260508220517 | 75 | 158 | 1.7 | 2.6 | 0.00 | 0.00 | 0.00 | 72 | 1009.8 |
| 20260508215517 | 75 | 90 | 1.7 | 3.5 | 0.00 | 0.00 | 0.00 | 71 | 1009.6 |
| 20260508214517 | 76 | 90 | 3.5 | 7.0 | 0.00 | 0.00 | 0.00 | 70 | 1009.5 |
| 20260508213517 | 74 | 158 | 0.9 | 2.6 | 0.00 | 0.00 | 0.00 | 76 | 1009.6 |
| 20260508212517 | 72 | 0.0 | 0.0 | 0.00 | 0.00 | 0.00 | 79 | 1009.6 | |
| 20260508211537 | 71 | 0 | 1.7 | 4.3 | 0.00 | 0.00 | 0.00 | 79 | 1010.1 |
| 20260508210517 | 72 | 0.0 | 0.9 | 0.00 | 0.00 | 0.00 | 76 | 1010.8 | |
| 20260508205517 | 73 | 225 | 0.9 | 1.7 | 0.00 | 0.00 | 0.00 | 73 | 1011.6 |
| 20260508204517 | 73 | 0 | 0.9 | 0.9 | 0.00 | 0.00 | 0.00 | 71 | 1011.8 |
| 20260508203517 | 74 | 203 | 0.9 | 1.7 | 0.00 | 0.00 | 0.00 | 71 | 1011.7 |
| 20260508202517 | 74 | 203 | 1.7 | 3.5 | 0.00 | 0.00 | 0.00 | 70 | 1011.7 |
| 20260508201537 | 75 | 0.0 | 0.0 | 0.00 | 0.00 | 0.00 | 67 | 1011.7 | |
| 20260508200536 | 75 | 0.0 | 1.7 | 0.00 | 0.00 | 0.00 | 67 | 1011.6 | |
| 20260508195537 | 76 | 225 | 0.9 | 2.6 | 0.00 | 0.00 | 0.00 | 66 | 1011.7 |
| 20260508194517 | 77 | 203 | 1.7 | 3.5 | 0.00 | 0.00 | 0.00 | 65 | 1011.8 |
| 20260508193517 | 76 | 113 | 0.9 | 1.7 | 0.00 | 0.00 | 0.00 | 66 | 1011.8 |
| 20260508192517 | 76 | 90 | 0.9 | 1.7 | 0.00 | 0.00 | 0.00 | 66 | 1011.9 |
| 20260508191517 | 76 | 158 | 2.6 | 4.3 | 0.00 | 0.00 | 0.00 | 65 | 1012.1 |
| 20260508190517 | 77 | 203 | 0.9 | 1.7 | 0.00 | 0.00 | 0.00 | 63 | 1012.3 |
| 20260508185517 | 78 | 68 | 1.7 | 3.5 | 0.00 | 0.00 | 0.00 | 60 | 1012.3 |
| 20260508184517 | 78 | 113 | 1.7 | 3.5 | 0.00 | 0.00 | 0.00 | 62 | 1012.2 |
| 20260508183517 | 78 | 270 | 0.9 | 1.7 | 0.00 | 0.00 | 0.00 | 65 | 1012.4 |
| 20260508182517 | 77 | 113 | 0.9 | 1.7 | 0.00 | 0.00 | 0.00 | 64 | 1012.6 |
| 20260508181517 | 77 | 135 | 1.7 | 2.6 | 0.00 | 0.00 | 0.00 | 62 | 1012.7 |
| 20260508180536 | 77 | 0.0 | 1.7 | 0.00 | 0.00 | 0.00 | 62 | 1013.0 | |
| 20260508175517 | 77 | 158 | 1.7 | 2.6 | 0.00 | 0.00 | 0.00 | 61 | 1013.1 |
| 20260508174517 | 75 | 180 | 0.9 | 2.6 | 0.00 | 0.00 | 0.00 | 64 | 1013.4 |
| 20260508173517 | 76 | 135 | 0.9 | 1.7 | 0.00 | 0.00 | 0.00 | 63 | 1013.4 |
| 20260508172517 | 75 | 113 | 2.6 | 5.2 | 0.00 | 0.00 | 0.00 | 64 | 1013.6 |
| 20260508171517 | 74 | 248 | 1.7 | 3.5 | 0.00 | 0.00 | 0.00 | 65 | 1013.7 |
| 20260508170517 | 74 | 225 | 1.7 | 4.3 | 0.00 | 0.00 | 0.00 | 67 | 1014.1 |
| 20260508165517 | 73 | 270 | 1.7 | 2.6 | 0.00 | 0.00 | 0.00 | 67 | 1014.4 |
| 20260508164518 | 73 | 135 | 0.9 | 1.7 | 0.00 | 0.00 | 0.00 | 67 | 1014.6 |
| 20260508163538 | 72 | 248 | 1.7 | 2.6 | 0.00 | 0.00 | 0.00 | 67 | 1014.9 |
| 20260508162518 | 71 | 158 | 1.7 | 4.3 | 0.00 | 0.00 | 0.00 | 68 | 1015.0 |
| 20260508161518 | 71 | 135 | 2.6 | 4.3 | 0.00 | 0.00 | 0.00 | 68 | 1015.1 |
| 20260508160518 | 72 | 225 | 0.9 | 1.7 | 0.00 | 0.00 | 0.00 | 67 | 1015.1 |
| 20260508155518 | 70 | 135 | 1.7 | 3.5 | 0.00 | 0.00 | 0.00 | 71 | 1015.3 |
| 20260508154538 | 71 | 135 | 0.9 | 2.6 | 0.00 | 0.00 | 0.00 | 69 | 1015.4 |
| 20260508153518 | 69 | 90 | 0.9 | 1.7 | 0.00 | 0.00 | 0.00 | 70 | 1015.5 |
| 20260508152518 | 69 | 0.0 | 0.9 | 0.00 | 0.00 | 0.00 | 71 | 1015.6 | |
| 20260508151517 | 69 | 203 | 0.9 | 2.6 | 0.00 | 0.00 | 0.00 | 70 | 1015.6 |
| 20260508150518 | 69 | 113 | 0.9 | 1.7 | 0.00 | 0.00 | 0.00 | 71 | 1015.6 |
| 20260508145538 | 68 | 158 | 0.9 | 1.7 | 0.00 | 0.00 | 0.00 | 71 | 1015.5 |
| 20260508144517 | 69 | 113 | 0.9 | 1.7 | 0.00 | 0.00 | 0.00 | 70 | 1015.4 |
| 20260508143517 | 68 | 180 | 0.9 | 3.5 | 0.00 | 0.00 | 0.00 | 72 | 1015.5 |
| 20260508141517 | 67 | 203 | 2.6 | 5.2 | 0.00 | 0.00 | 0.00 | 73 | 1015.8 |
| 20260508140518 | 67 | 135 | 0.9 | 2.6 | 0.00 | 0.00 | 0.00 | 74 | 1015.9 |
| 20260508135517 | 66 | 135 | 1.7 | 2.6 | 0.00 | 0.00 | 0.00 | 76 | 1015.9 |
| 20260508134518 | 65 | 90 | 1.7 | 2.6 | 0.00 | 0.00 | 0.00 | 78 | 1015.7 |
| 20260508133517 | 64 | 113 | 0.9 | 1.7 | 0.00 | 0.00 | 0.00 | 80 | 1015.8 |
| 20260508132518 | 64 | 113 | 0.9 | 1.7 | 0.00 | 0.00 | 0.00 | 83 | 1015.9 |
| 20260508131517 | 62 | 113 | 1.7 | 2.6 | 0.00 | 0.00 | 0.00 | 85 | 1015.9 |
| 20260508130518 | 61 | 0.0 | 0.0 | 0.00 | 0.00 | 0.00 | 87 | 1016.1 | |
| 20260508125517 | 61 | 0.0 | 0.0 | 0.00 | 0.00 | 0.00 | 88 | 1016.0 | |
| 20260508124517 | 60 | 0.0 | 0.0 | 0.00 | 0.00 | 0.00 | 88 | 1016.2 |